Location: Bismarck
(46.7731°N, 100.8200°W)
Time: 14:30:49
(UTC-06:00)

Daily predictions for brighter satellites

Satellite Brightness Start Highest point End
(mag) Time Altitude Azimuth Time Altitude Azimuth Time Altitude Azimuth
Aureole 3 4.2 17:24:32 10° N 17:29:19 87° W 17:35:26 10° S
Cosmos 1782 4.4 17:27:12 10° SE 17:29:44 16° E 17:32:16 10° NE
Cosmos 44 Rocket 4.1 17:28:06 10° NNW 17:32:27 32° NE 17:36:52 10° ESE
Cosmos 304 Rocket 3.7 17:29:05 10° NNW 17:33:55 77° ENE 17:38:43 10° SSE
CZ-2C R/B 2.7 17:29:20 10° S 17:34:23 79° WSW 17:39:35 10° NNW
Cosmos 1862 Rocket 3.7 17:31:27 10° S 17:35:49 61° E 17:40:15 10° NNE
Cosmos 2233 Rocket 4.1 17:36:05 10° SSE 17:42:08 56° E 17:48:10 10° NNE
Okean 1-7 4.4 17:39:16 10° SE 17:42:30 20° E 17:45:45 10° NE
Cosmos 2242 Rocket 3.7 17:39:29 10° S 17:44:01 86° W 17:48:34 10° N
SJ-12 4.0 17:40:33 10° SSE 17:44:41 86° WSW 17:48:53 10° NNW
Sich 1 Rocket 4.0 17:42:24 10° N 17:46:38 42° ENE 17:50:52 10° SSE
Cosmos 1763 Rocket 3.6 17:42:50 10° NNW 17:48:05 80° WSW 17:53:12 10° SSE
CSL-04 Debris 4.1 17:43:46 10° SSE 17:49:08 69° ENE 17:54:32 10° N
Lacrosse 5 3.1 17:47:30 10° WNW 17:51:55 29° NNW 17:56:21 10° NE
Cosmos 44 3.5 17:47:40 10° NNW 17:52:07 44° NE 17:56:47 10° ESE
Cosmos 1833 Rocket 2.8 17:47:19 10° NNW 17:52:49 53° ENE 17:58:19 10° SE
ATLAS 3B R/B 4.3 17:49:52 10° WNW 17:55:22 23° NNW 18:00:43 10° NNE
AQUARIUS 4.1 17:54:34 10° SSE 17:59:01 71° ENE 18:03:32 10° N
USA 116 4.4 17:59:02 10° NNE 18:03:10 37° E 18:06:48 10° SSE
Cosmos 2263 Rocket 4.5 18:01:16 10° WNW 18:04:20 15° NW 18:07:23 10° N
Cosmos 1844 4.5 17:59:19 10° SW 18:04:58 54° WNW 18:10:41 10° NNE
Cosmos 1782 Rocket 3.8 18:00:49 10° N 18:05:00 45° ENE 18:09:12 10° SSE
CORIOLIS 4.1 18:00:01 10° SSE 18:05:26 73° ENE 18:10:53 10° N
Cosmos 405 4.2 18:03:06 10° NNE 18:06:00 22° ENE 18:08:53 10° ESE
Cosmos 2297 4.3 18:00:58 10° S 18:06:10 38° ESE 18:11:15 11° NE
SL-27 R/B 2.4 18:04:16 10° NNW 18:07:38 82° WSW 18:10:59 10° SSE
USA 161 3.6 18:06:15 10° NNW 18:07:44 18° WNW 18:09:19 10° WSW
Cosmos 2278 Rocket 2.2 18:02:34 10° SSW 18:08:15 87° ESE 18:13:58 10° NNE
Cosmos 540 Rocket 3.4 18:03:28 10° NNW 18:08:37 63° ENE 18:13:44 10° SSE
Cosmos 1437 3.9 18:05:44 10° SSW 18:08:46 43° WNW 18:11:50 10° N
Meteor 1-14 Rocket 4.4 18:06:11 10° NNW 18:11:53 78° W 18:17:25 10° S
Meteor 1-28 Rocket 3.3 18:08:31 10° NNE 18:12:10 53° E 18:15:48 10° S
ALOS 3.0 18:08:13 10° SE 18:12:14 29° ENE 18:16:15 10° N
COSMO-SKYMED 1 3.5 18:08:54 10° NE 18:12:40 28° E 18:16:26 10° SSE
YAOGAN 1 2.6 18:10:15 10° SSE 18:14:29 56° ENE 18:18:45 10° N
COSMOS 2487 3.6 18:13:35 10° N 18:16:26 22° ENE 18:16:47 22° ENE
USA 234 4.4 18:14:26 15° E 18:18:01 23° SE 18:23:02 10° S
SMAP 3.3 18:13:52 10° S 18:18:31 75° WSW 18:23:11 10° NNW
Intercosmos 25 4.4 18:11:29 10° S 18:18:46 58° E 18:23:16 10° NNE
Cosmos 1606 2.6 18:18:54 10° S 18:22:37 62° E 18:26:23 10° NNE
CZ-4C R/B 2.9 18:16:20 10° NW 18:23:09 56° NE 18:30:50 10° ESE
Cosmos 1441 Rocket 4.3 18:20:39 10° SSE 18:23:54 25° E 18:24:29 24° ENE
Cosmos 1503 Rocket 4.1 18:19:33 10° S 18:24:41 56° ESE 18:29:24 12° NNE
Ariane Rocket 3.6 18:19:55 10° S 18:24:56 61° WSW 18:29:59 10° NNW
Landsat 4 3.8 18:21:35 11° NNE 18:25:10 52° E 18:28:53 10° S
Cosmos 841 Rocket 4.4 18:20:21 10° NNW 18:25:29 52° WSW 18:30:34 10° S
BREEZE-M DEB (TANK) 2.7 18:24:41 10° W 18:26:57 66° NNW 18:28:24 28° ENE
SL-23 DEB 4.4 18:23:28 10° WNW 18:27:11 59° NNE 18:30:54 21° E
Meteor 1-11 Rocket 4.1 18:22:24 10° N 18:28:00 44° ENE 18:33:26 10° SE
EO 1 Del DPAF 3.6 18:32:19 24° NE 18:34:08 41° E 18:37:44 10° S
IRS-1A Rocket 4.4 18:28:43 10° SSE 18:34:31 82° WSW 18:40:14 10° NNW
Cosmos 1484 Rocket 4.1 18:31:16 10° S 18:34:58 43° W 18:38:46 10° NNW
METEOR-M 4.0 18:30:27 10° SSE 18:35:46 77° ENE 18:41:08 10° NNW
Cosmos 1703 Rocket 3.6 18:31:21 10° S 18:35:50 84° W 18:40:18 10° N
Nadezhda 4 Rocket 4.2 18:31:30 10° N 18:37:20 43° ENE 18:43:07 10° SE
Cosmos 2221 Rocket 3.5 18:35:44 10° S 18:40:06 70° E 18:44:31 10° NNE
Cosmos 2151 Rocket 4.0 18:36:04 10° N 18:40:11 37° ENE 18:44:16 10° SE
Meteor 2-20 4.4 18:36:00 10° N 18:42:01 58° ENE 18:47:58 10° SSE
Cosmos 1072 Rocket 4.4 18:36:20 10° S 18:42:32 76° E 18:48:54 10° NNE
ERS-2 2.1 18:39:49 10° SSE 18:43:29 88° WSW 18:47:12 10° NNW
Cosmos 2082 Rocket 2.6 18:39:49 10° NNW 18:45:28 67° WSW 18:51:04 10° SSE
BREEZE-M DEB (TANK) 1.9 18:43:23 10° WNW 18:45:38 65° NNE 18:46:38 41° E
CZ-4 R/B 2.5 18:43:24 10° S 18:47:06 43° W 18:50:47 10° NNW
Cosmos 2034 Rocket 4.0 18:43:28 10° S 18:49:41 60° E 18:55:55 10° NNE
Cosmos 1602 3.5 18:46:23 10° N 18:50:15 77° E 18:54:06 10° SSE
Cosmos 1633 3.8 18:49:04 10° NNW 18:52:34 43° W 18:56:03 10° SSW
Okean 2 Rocket 3.1 18:48:34 10° N 18:53:08 88° WSW 18:57:39 10° S
MOS 1 4.3 18:48:01 10° SSE 18:53:44 86° WSW 18:59:29 10° NNW
Timation 2 Rocket 4.0 18:48:59 10° NNW 18:55:48 69° ENE 19:02:18 10° SE
COSMOS 2455 4.2 18:50:49 10° WSW 18:56:17 35° NW 19:01:30 11° NNE
Cosmos 1092 Rocket 4.2 18:50:36 10° N 18:56:27 43° ENE 19:02:17 10° SE
CENTAUR R/B 3.9 18:51:13 10° W 18:57:01 34° NNW 19:02:27 14° NNE
Meteor 2-6 Rocket 4.1 18:51:46 10° S 18:57:14 89° E 19:02:55 10° NNE
Cosmos 405 Rocket 2.5 18:55:44 10° S 18:59:29 80° E 19:00:28 47° NNE
SKYMED 2 3.5 18:57:29 17° NNE 19:00:53 88° E 19:05:14 10° SSW
Cosmos 783 Rocket 4.5 18:58:03 10° NNW 19:03:25 90° WSW 19:08:44 10° SSE
Cosmos 1354 Rocket 4.2 18:59:22 10° SSW 19:04:37 71° WNW 19:08:45 17° NNE
Cosmos 1782 4.0 19:01:53 10° SSW 19:05:43 43° WNW 19:09:35 10° N
USA 229 DEB 4.2 19:03:47 10° S 19:09:48 36° ESE 19:10:12 35° ESE
USA 229 4.2 19:03:54 10° S 19:09:54 35° ESE 19:10:15 35° ESE
Cosmos 44 Rocket 4.3 19:09:28 10° NW 19:14:09 47° WSW 19:18:55 10° SSE
SPOT 3 Rocket 3.8 19:09:31 10° S 19:14:43 70° WSW 19:19:56 10° NNW
Cosmos 1464 Rocket 4.2 19:10:21 10° SSW 19:16:26 68° W 19:22:37 10° N
FengYun 1-2 T 4.1 19:14:01 16° SSE 19:18:30 64° ENE 19:24:01 10° N
Okean 1-7 4.3 19:15:38 10° SSW 19:19:47 41° WNW 19:24:00 10° N
FENGYUN 3A 3.8 19:15:33 10° S 19:20:57 73° WSW 19:26:23 10° NNW
Cosmos 1538 Rocket 3.9 19:15:55 10° NNW 19:21:12 61° ENE 19:21:23 61° ENE
Meteor 1-5 Rocket 3.9 19:19:20 10° N 19:24:42 78° E 19:29:59 10° SSE
Meteor 2-20 Rocket 4.4 19:20:10 10° N 19:26:18 86° W 19:32:23 10° S
Meteor 1-27 Rocket 4.0 19:27:08 10° SSW 19:33:02 75° WNW 19:39:01 10° N
Lacrosse 5 3.2 19:31:49 10° NW 19:35:34 27° N 19:35:34 27° N
Cosmos 2026 Rocket 4.5 19:30:01 10° N 19:34:34 43° NNE 19:34:34 43° NNE
Cosmos 2369 Rocket 3.9 19:37:47 10° S 19:39:26 19° S 19:39:26 19° S
ATLAS 3B R/B 4.3 19:43:50 10° NW 19:48:41 19° N 19:49:01 19° NNE
COSMO-SKYMED 1 4.3 19:46:08 17° NNW 19:48:49 31° WNW 19:52:39 10° SW
ALOS 3.8 19:45:19 10° SSW 19:49:34 35° W 19:53:53 10° NNW
Cosmos 2278 Rocket 4.4 19:48:58 10° W 19:53:07 20° NW 19:56:50 12° N
Cosmos 968 Rocket 4.0 19:55:36 10° SW 20:00:42 55° WNW 20:00:45 55° WNW
USA 234 3.1 20:01:47 78° SSE 20:01:47 78° SSE 20:08:15 10° SW
CZ-4C R/B 3.9 20:05:01 10° NW 20:11:47 44° WSW 20:18:12 14° S
